Montross, Virginia, United States (22520)
Lat: 38.09N, Lon: 76.83W
Wx Zone: VAZ075
Local Info
Past Weather Observations for Wednesday, December 17, 2014

NOTE: This archive is for the closest National Weather Service station to Montross. Information may differ from the station used for current weather conditions.

Click here for Long-term Archive

Time Weather Temperature Dewpoint Humidity Pressure Winds Precip Visibility
23:52
Clear
39°F / 4°C 25°F / -4°C 56% 30.06 in
(1018 mb)
NNW 17.3 mph
(NNW 28 kph)
- 10SM
22:52
Partly Cloudy
41°F / 5°C 27°F / -3°C 57% 30.06 in
(1018 mb)
NW 13.8 mph
(NW 22 kph)
- 10SM
21:52
Partly Cloudy
43°F / 6°C 27°F / -3°C 53% 30.04 in
(1017 mb)
NNW 11.5 mph
(NNW 19 kph)
- 10SM
20:52
Partly Cloudy
43°F / 6°C 28°F / -2°C 57% 30.04 in
(1017 mb)
NW 11.5 mph
(NW 19 kph)
- 10SM
19:52
Partly Cloudy
45°F / 7°C 28°F / -2°C 53% 30.04 in
(1017 mb)
NW 13.8 mph
(NW 22 kph)
- 10SM
18:52
Partly Cloudy
45°F / 7°C 30°F / -1°C 57% 30.01 in
(1016 mb)
NNW 11.5 mph
(NNW 19 kph)
- 10SM
17:52
Partly Cloudy
46°F / 8°C 34°F / 1°C 62% 30.01 in
(1016 mb)
NW 6.9 mph
(NW 11 kph)
- 10SM
16:52
Partly Cloudy
50°F / 10°C 36°F / 2°C 58% 29.98 in
(1015 mb)
NW 10.4 mph
(NW 17 kph)
- 10SM
15:52
Mostly Cloudy
55°F / 13°C 36°F / 2°C 47% 29.95 in
(1014 mb)
NW 10.4 mph
(NW 17 kph)
- 10SM
14:52
Mostly Cloudy
57°F / 14°C 36°F / 2°C 44% 29.95 in
(1014 mb)
NW 11.5 mph
(NW 19 kph)
- 10SM
13:52
Partly Cloudy
55°F / 13°C 37°F / 3°C 51% 29.95 in
(1014 mb)
NW 12.7 mph
(NW 20 kph)
- 10SM
12:52
Partly Cloudy
54°F / 12°C 39°F / 4°C 58% 29.98 in
(1015 mb)
W 11.5 mph
(W 19 kph)
- 10SM
11:52
Partly Cloudy
52°F / 11°C 43°F / 6°C 72% 29.98 in
(1015 mb)
Variable 5.8 mph
(Variable 9 kph)
- 10SM
10:52
Partly Cloudy
52°F / 11°C 41°F / 5°C 67% 30.01 in
(1016 mb)
NNW 4.6 mph
(NNW 7 kph)
- 10SM
09:52
Partly Cloudy
45°F / 7°C 43°F / 6°C 93% 30.04 in
(1017 mb)
SSW 4.6 mph
(SSW 7 kph)
- 7SM
08:58
Partly Cloudy
Fog And Mist
43°F / 6°C 41°F / 5°C 93% 30.01 in
(1016 mb)
SSW 8.1 mph
(SSW 13 kph)
- 3SM
08:52
Partly Cloudy
Fog And Mist
43°F / 6°C 41°F / 5°C 93% 30.01 in
(1016 mb)
SSW 10.4 mph
(SSW 17 kph)
- 2 1/2SM
08:49
Partly Cloudy
Fog And Mist
43°F / 6°C 41°F / 5°C 93% 30.01 in
(1016 mb)
SSW 10.4 mph
(SSW 17 kph)
- 2 1/2SM
08:35
Mostly Cloudy
Fog And Mist
43°F / 6°C 41°F / 5°C 93% 30.01 in
(1016 mb)
SSW 5.8 mph
(SSW 9 kph)
- 1 3/4SM
08:26
Partly Cloudy
Fog And Mist
43°F / 6°C 39°F / 4°C 87% 30.01 in
(1016 mb)
SSW 8.1 mph
(SSW 13 kph)
- 1 1/2SM
07:52
Obscured
Fog
41°F / 5°C 39°F / 4°C 93% 30.01 in
(1016 mb)
SW 4.6 mph
(SW 7 kph)
- 1/2SM
07:41
Obscured
Fog
39°F / 4°C 39°F / 4°C 100% 30.01 in
(1016 mb)
SSW 3.5 mph
(SSW 6 kph)
- 1/4SM
06:52
Partly Cloudy
Fog
36°F / 2°C 34°F / 1°C 93% 29.98 in
(1015 mb)
SSW 5.8 mph
(SSW 9 kph)
- 1/2SM
05:52
Clear
Fog And Mist
39°F / 4°C 37°F / 3°C 93% 29.95 in
(1014 mb)
W 3.5 mph
(W 6 kph)
- 3SM
05:39
Partly Cloudy
Fog And Mist
37°F / 3°C 37°F / 3°C 100% 29.95 in
(1014 mb)
NW 4.6 mph
(NW 7 kph)
- 2SM
05:26
Partly Cloudy
Fog And Mist
39°F / 4°C 39°F / 4°C 100% 29.95 in
(1014 mb)
NW 3.5 mph
(NW 6 kph)
- 3SM
05:21
Clear
Fog And Mist
39°F / 4°C 39°F / 4°C 100% 29.95 in
(1014 mb)
WNW 4.6 mph
(WNW 7 kph)
- 2 1/2SM
05:07
Clear
Fog And Mist
39°F / 4°C 37°F / 3°C 93% 29.95 in
(1014 mb)
WNW 3.5 mph
(WNW 6 kph)
- 1SM
04:59
Clear
Fog And Mist
39°F / 4°C 37°F / 3°C 93% 29.95 in
(1014 mb)
W 3.5 mph
(W 6 kph)
- 1 3/4SM
04:52
Clear
Fog And Mist
39°F / 4°C 37°F / 3°C 93% 29.95 in
(1014 mb)
W 3.5 mph
(W 6 kph)
- 3SM
04:01
Clear
Fog And Mist
41°F / 5°C 39°F / 4°C 93% 29.95 in
(1014 mb)
NW 3.5 mph
(NW 6 kph)
- 4SM
03:52
Clear
Fog And Mist
43°F / 6°C 39°F / 4°C 87% 29.95 in
(1014 mb)
NW 3.5 mph
(NW 6 kph)
- 2 1/2SM
02:52
Clear
Fog And Mist
43°F / 6°C 39°F / 4°C 87% 29.92 in
(1013 mb)
SSW 6.9 mph
(SSW 11 kph)
- 4SM
01:52
Partly Cloudy
Fog And Mist
45°F / 7°C 43°F / 6°C 93% 29.92 in
(1013 mb)
W 6.9 mph
(W 11 kph)
- 5SM
00:52
Overcast
Fog And Mist
46°F / 8°C 45°F / 7°C 93% 29.92 in
(1013 mb)
W 8.1 mph
(W 13 kph)
- 6SM
00:37
Overcast
Fog And Mist
46°F / 8°C 45°F / 7°C 93% 29.92 in
(1013 mb)
WNW 8.1 mph
(WNW 13 kph)
- 6SM
00:30
Overcast
Fog And Mist
46°F / 8°C 45°F / 7°C 93% 29.92 in
(1013 mb)
WNW 6.9 mph
(WNW 11 kph)
- 6SM
00:16
Overcast
Fog And Mist
46°F / 8°C 45°F / 7°C 93% 29.92 in
(1013 mb)
W 6.9 mph
(W 11 kph)
- 6SM
Time Weather Temperature Dewpoint Humidity Pressure Winds Precip Visibility


Weather for websites

WeatherForYou.com, LLC is not responsible for any damages or problems caused by this service. Current weather conditions are obtained from the closest station including government and personal stations which may have varying degrees of accuracy. Weather forecasts are derived from the NOAA NDFD. Like all things, this site belongs to Jesus Christ... He just trusts me to maintain it. If you have any questions or comments email webmaster@weatherforyou.com

Copyright © 2014, WeatherForYou.com LLC. All rights reserved.